FW1801 Weather Reports


time (UTC)temp
C
wind
direction
speed
KPH
gust
KPH
rain 1hr
cm
rain 24hr
cm
rain mn
cm
humidity
%
barometer
mb
20260506134532 12 221 0.0 3.2 0.28 0.84 0.56 96 1006.3
20260506133028 12 244 0.0 3.2 0.30 0.79 0.51 96 1006.6
20260506131533 12 130 0.0 4.8 0.36 0.71 0.46 96 1007.0
20260506130024 12 148 0.0 3.2 0.28 0.66 0.38 96 1007.2
20260506124522 12 62 0.0 4.8 0.20 0.56 0.28 96 1007.3
20260506123033 12 339 0.0 3.2 0.10 0.46 0.18 96 1006.9
20260506121519 12 339 0.0 4.8 0.05 0.38 0.10 96 1006.9
20260506120025 11 74 0.0 1.6 0.05 0.38 0.10 96 1006.8
20260506114520 11 74 0.0 0.0 0.03 0.41 0.08 95 1007.0
20260506113018 11 74 0.0 0.0 0.03 0.41 0.08 95 1007.2
20260506111516 11 74 0.0 1.6 0.03 0.38 0.05 95 1007.2
20260506110016 11 74 0.0 1.6 0.03 0.38 0.05 95 1007.0
20260506104523 11 74 0.0 0.0 0.03 0.38 0.05 95 1007.1
20260506103016 11 74 0.0 0.0 0.03 0.38 0.05 95 1007.2
20260506101512 11 74 0.0 0.0 0.00 0.36 0.03 95 1006.9
20260506100017 11 19 0.0 0.0 0.03 0.36 0.03 94 1006.8
20260506094611 11 292 0.0 1.6 0.03 0.36 0.03 94 1006.8
20260506093010 11 291 0.0 1.6 0.03 0.36 0.03 94 1006.8
20260506091508 11 291 0.0 3.2 0.03 0.36 0.03 94 1006.8
20260506090006 11 291 0.0 0.0 0.00 0.33 0.00 94 1007.0
20260506084507 11 291 0.0 0.0 0.00 0.33 0.00 94 1007.4
20260506083006 11 291 0.0 1.6 0.00 0.33 0.00 94 1007.5
20260506081507 11 291 0.0 1.6 0.00 0.33 0.00 94 1007.5
20260506073001 11 291 0.0 1.6 0.00 0.33 0.00 94 1007.2
20260506071600 11 291 0.0 0.0 0.00 0.33 0.00 93 1007.2
20260506061553 11 291 0.0 1.6 0.00 0.33 0.00 93 1007.9
20260506044550 11 291 0.0 1.6 0.00 0.33 0.00 91 1009.0
20260506043043 11 291 0.0 3.2 0.00 0.33 0.00 90 1009.0
20260506041542 11 291 0.0 3.2 0.00 0.33 0.00 88 1009.1
20260506040037 12 291 1.6 3.2 0.00 0.33 0.00 87 1009.3
20260506034538 12 291 0.0 3.2 0.00 0.33 0.33 86 1009.3
20260506033033 13 290 0.0 3.2 0.00 0.33 0.33 85 1009.8
20260506031542 13 292 1.6 6.4 0.00 0.33 0.33 84 1009.5
20260506030031 13 251 1.6 8.0 0.00 0.33 0.33 84 1009.6
20260506024532 13 269 3.2 9.7 0.00 0.33 0.33 87 1009.5
20260506023027 14 161 0.0 4.8 0.00 0.33 0.33 91 1009.4
20260506021524 14 248 0.0 9.7 0.00 0.33 0.33 91 1009.1
20260506020024 14 255 0.0 3.2 0.00 0.33 0.33 92 1008.9
20260506014523 14 196 1.6 4.8 0.00 0.33 0.33 94 1008.6
20260506013023 14 196 0.0 3.2 0.00 0.33 0.33 95 1008.5
20260506011520 14 196 0.0 3.2 0.00 0.33 0.33 94 1008.1
20260506010044 14 200 0.0 3.2 0.00 0.33 0.33 94 1007.9
20260506004522 15 200 0.0 3.2 0.00 0.33 0.33 94 1007.7
20260506003022 15 200 0.0 3.2 0.00 0.33 0.33 94 1007.4
20260506001518 15 200 0.0 1.6 0.00 0.33 0.33 93 1007.3
20260506000018 15 200 0.0 3.2 0.00 0.33 0.33 93 1007.2
20260505234517 15 200 0.0 3.2 0.00 0.33 0.33 93 1007.3
20260505233016 16 200 0.0 1.6 0.00 0.33 0.33 92 1007.2
20260505231515 16 200 0.0 1.6 0.00 0.33 0.33 92 1007.1
20260505230023 16 200 0.0 3.2 0.00 0.33 0.33 92 1006.9
20260505224514 16 200 0.0 3.2 0.00 0.33 0.33 91 1007.0
20260505223013 16 200 0.0 3.2 0.00 0.33 0.33 91 1006.9
20260505221513 17 200 0.0 4.8 0.00 0.33 0.33 89 1006.9
20260505220012 17 200 1.6 3.2 0.00 0.33 0.33 87 1006.9
20260505214512 18 200 0.0 1.6 0.00 0.33 0.33 84 1006.5
20260505213020 18 200 1.6 3.2 0.00 0.33 0.33 84 1006.3
20260505211510 18 200 0.0 3.2 0.00 0.33 0.33 87 1006.2
20260505210010 18 200 1.6 4.8 0.00 0.33 0.33 90 1006.2
20260505204508 16 261 0.0 3.2 0.28 0.33 0.33 88 1006.4
20260505203007 16 265 1.6 4.8 0.28 0.33 0.33 86 1006.7
20260505201506 17 242 1.6 4.8 0.28 0.33 0.33 85 1006.7
20260505200006 17 76 1.6 17.7 0.28 0.33 0.33 81 1006.7
20260505194504 22 325 16.1 38.6 0.00 0.05 0.05 54 1006.8
20260505193003 23 177 4.8 17.7 0.00 0.05 0.05 43 1004.8
20260505191503 25 194 6.4 25.7 0.00 0.05 0.05 41 1004.8
20260505190105 25 180 11.3 24.1 0.00 0.05 0.05 39 1004.6
20260505184603 24 267 8.0 25.7 0.00 0.05 0.05 43 1005.0
20260505183129 25 150 11.3 29.0 0.00 0.05 0.05 42 1005.2
20260505181553 25 162 6.4 16.1 0.00 0.05 0.05 46 1005.6
20260505180052 23 192 8.0 25.7 0.00 0.05 0.05 47 1006.0
20260505174552 23 196 9.7 25.7 0.00 0.05 0.05 48 1006.1
20260505173054 23 198 3.2 9.7 0.00 0.05 0.05 50 1006.3
20260505171558 23 112 4.8 19.3 0.00 0.05 0.05 50 1006.3
20260505170049 23 229 6.4 22.5 0.00 0.05 0.05 48 1006.0
20260505164548 24 126 6.4 22.5 0.00 0.05 0.05 48 1005.9
20260505163046 23 138 6.4 17.7 0.00 0.05 0.05 48 1006.2
20260505161551 23 149 8.0 19.3 0.00 0.05 0.05 49 1006.5
20260505153040 23 236 11.3 27.4 0.00 0.05 0.05 48 1006.7
20260505151537 23 236 6.4 22.5 0.00 0.05 0.05 49 1006.6